Regional Weather Roundup
Issued by NWS Upton, NY

Current Version | Previous Version | Text Only | Print | Product List | Glossary On
Versions: 1 2 3 4 5 6 7 8 9 10 11 12 13 14 15 16 17 18 19 20 21 22 23 24 25 26 27 28 29 30 31 32 33 34 35 36 37 38 39 40 41 42 43 44 45
000 ASUS41 KOKX 040704 RWROKX REGIONAL WEATHER ROUNDUP NATIONAL WEATHER SERVICE NEW YORK NY 300 AM EDT TUE AUG 04 2015 NOTE: "FAIR" INDICATES FEW OR NO CLOUDS BELOW 12,000 FEET WITH NO SIGNIFICANT WEATHER AND/OR OBSTRUCTIONS TO VISIBILITY. NYZ071-072-176-178-NJZ106-104-040800- NEW YORK CITY METRO AREA CITY SKY/WX TMP DP RH WIND PRES REMARKS CENTRAL PARK CLOUDY 80 66 62 VRB7 29.84F LAGUARDIA APRT MOCLDY 80 67 64 SW12 29.81S KENNEDY INTL CLOUDY 76 71 85 SW7 29.83S NEWARK/LIBERTY LGT RAIN 78 69 73 SW9 29.83R BRNX BOT. GARD N/A 81 64 57 SE5 29.82S TETERBORO LGT RAIN 78 64 61 SW6 29.81S $$ NYZ177-179-078>081-040800- LONG ISLAND NEW YORK CITY SKY/WX TMP DP RH WIND PRES REMARKS FARMINGDALE MOCLDY 77 74 90 SW9 29.83F ISLIP MOCLDY 77 74 90 SW12 29.81F SHIRLEY CLOUDY 78 75 90 SW12G22 29.84S WESTHAMPTON CLOUDY 77 75 93 SW9 29.85S MONTAUK POINT N/A 77 74 90 SW9G18 29.85S $$ NYZ052-065-067-040800- HUDSON VALLEY CITY SKY/WX TMP DP RH WIND PRES REMARKS WHITE PLAINS CLOUDY 71 65 81 S3 29.82F NEWBURGH PTCLDY 70 63 78 W7 29.83 MONTGOMERY MOCLDY 67 62 84 S3 29.81S POUGHKEEPSIE CLOUDY 73 63 70 CALM 29.79F ALBANY CLOUDY 68 65 90 CALM 29.82S $$ NJZ001-105-106-008-010-013-015-019>022-104-040800- NEW JERSEY CITY SKY/WX TMP DP RH WIND PRES REMARKS NEWARK/LIBERTY LGT RAIN 78 69 73 SW9 29.83R TETERBORO LGT RAIN 78 64 61 SW6 29.81S CALDWELL LGT RAIN 75 64 68 CALM 29.83R MORRISTOWN LGT RAIN 72 64 78 CALM 29.83R SOMERVILLE LGT RAIN 73 65 75 CALM 29.82R SUSSEX MOCLDY 66 64 93 SW3 29.82F ANDOVER N/A 66 65 96 SW6 29.84S TRENTON CLOUDY 70 63 78 NW6 29.81F THUNDER MILLVILLE CLEAR 78 74 87 SW6 29.84S ATLANTIC CITY CLEAR 77 73 87 S8 29.85R WRIGHTSTOWN PTCLDY 74 73 96 SW5 29.82R TOMS RIVER N/A 75 72 88 W6 29.85R BELMAR PTCLDY 75 70 83 SW6 29.84S $$ PAZ047>061-062-071-040800- EASTERN PENNSYLVANIA CITY SKY/WX TMP DP RH WIND PRES REMARKS PHILADELPHIA MOCLDY 77 63 61 CALM 29.84S ALLENTOWN TSTM 67 64 90 SE6 29.86R SCRANTON CLOUDY 70 67 90 S3 29.84R $$ CTZ002-004>006-009-010-012-RIZ004-006-007-MAZ004-011-015-040800- SOUTHERN NEW ENGLAND IN CT CITY SKY/WX TMP DP RH WIND PRES REMARKS BRADLEY INTL CLOUDY 73 70 90 S8 29.81S HARTFORD MOCLDY 75 72 90 S5 29.81R DANBURY CLOUDY 70 65 84 CALM 29.83F WTRBRY/OXFORD CLOUDY 73 64 73 S3 29.85F BRIDGEPORT MOCLDY 77 72 84 SW8 29.82S MERIDEN MOCLDY 74 71 91 S3 29.82S NEW HAVEN MOCLDY 76 72 87 VRB5 29.82F CHESTER FAIR 73 73 100 SW6 29.85S GROTON CLEAR 75 73 93 SW7 29.83R WILLIMANTIC PTCLDY 74 71 91 CALM 29.83S IN RI CITY SKY/WX TMP DP RH WIND PRES REMARKS PROVIDENCE PTCLDY 76 71 85 SW7 29.83S BLOCK ISLAND N/A 73 73 100 SW14 29.86S WESTERLY MOCLDY 75 72 90 SW8 29.85R IN MA CITY SKY/WX TMP DP RH WIND PRES REMARKS BOSTON CLEAR 74 70 87 SW12 29.81S WORCESTER CLOUDY 69 68 96 SW8 29.86R FOG WESTFIELD MOCLDY 69 67 93 CALM 29.81S PROVINCETOWN PTCLDY 73 66 78 SW10 29.83S NANTUCKET MOCLDY 73 71 93 SW12 29.86S $$ ANZ330-335-338-340-345-350-353-355-040800- COASTAL MARINE OBSERVATIONS STATION/POSITION TIME SKY/WX TEMP WIND PRES VSBY WAVE AIR SEA DIR/SP/G HT/PER (UTC) (F) (DEG/KT/KT) (MB) (MI) (FT/S) NY HARB ENTRANCE 0550 76 75 210/ 17/ 21 1009.5 4/ 7 4S FIRE IS NOT AVBL 20S FIRE ISLAND 0550 77 75 210/ 16/ 17 1010.0 6/ 6 GREAT SOUTH BAY 0600 77 80 210/ 16/ 19 N/A 23SW MTP 0650 77 75 230/ 16/ 19 1010.3 5/ 6 HUDSON CANYON NOT AVBL KINGS POINT 0600 77 71 220/ 6/ 9 1009.1 EXECUTION ROCKS 0600 76 210/ 6/ 6 N/A CENTRAL LI SOUND NOT AVBL EASTERN LI SOUND 0600 72 69 210/ 12/ 14 N/A ROBBINS REEF 0600 78 230/ 10/ 12 1008.6 $$ >>>>>>>>>>>>>>>>>>>>>>>>>>>> KEY <<<<<<<<<<<<<<<<<<<<<<<<<<< > < > SKY/WX - SKY CONDITION/PRESENT WEATHER < > TMP - TEMPERATURE IN FAHRENHEIT < > DP - DEWPOINT IN FAHRENHEIT < > RH - RELATIVE HUMIDITY IN PERCENT < > WIND - DIRECTION AND SPEED IN MPH < > PRES - MEAN SEA LEVEL PRESSURE IN INCHES OF HG < > WCI - WIND CHILL INDEX < > VSB - VISIBILITY IN MILES < > HX - HEAT INDEX < > TC - TEMPERATURE IN CELSIUS < > VRB - VARIABLE WIND DIRECTION < > < >>>>>>>>>>>>>>>>>>>>>>>>>>>> KEY <<<<<<<<<<<<<<<<<<<<<<<<<<<

USA.gov is the U.S. government's official web portal to all federal, state and local government web resources and services.